Overview Statistics Trail Chart Weather Telemetry Raw packets
 

This is the latest recevied weather packets stored in our database for station/object OE6ACM-10. If no packets are shown the sender has not sent any weather packets the latest 10 day(s).

<< 11 12 13 14 15 16 17 >>
Time Temp. Humidity Pressure Rain* Wind** Luminosity Snow
1788610822 28.89° C 100% 931.3 hPa - - - -
1788610489 28.33° C 100% 931.5 hPa - - - -
1788610189 28.89° C 100% 931.4 hPa - - - -
1788609889 28.89° C 100% 931.6 hPa - - - -
1788609589 28.33° C 100% 931.4 hPa - - - -
1788609289 27.78° C 100% 931.3 hPa - - - -
1788608989 27.22° C 100% 931.3 hPa - - - -
1788608689 27.78° C 100% 931.4 hPa - - - -
1788608389 27.22° C 100% 931.1 hPa - - - -
1788608089 26.67° C 100% 931.1 hPa - - - -
1788607789 25.56° C 100% 930.9 hPa - - - -
1788607489 26.11° C 100% 930.9 hPa - - - -
1788607189 26.11° C 100% 931.1 hPa - - - -
1788606889 26.11° C 100% 931.1 hPa - - - -
1788606589 26.11° C 100% 931.1 hPa - - - -
1788606289 26.11° C 100% 931.2 hPa - - - -
1788605989 25.56° C 100% 931.4 hPa - - - -
1788605689 25.56° C 100% 931.4 hPa - - - -
1788605389 25.56° C 100% 931.4 hPa - - - -
1788605089 25° C 100% 931.7 hPa - - - -
1788604789 25° C 100% 931.8 hPa - - - -
1788604489 24.44° C 100% 931.8 hPa - - - -
1788604189 23.89° C 100% 931.7 hPa - - - -
1788603889 23.89° C 100% 931.8 hPa - - - -
1788603589 23.89° C 100% 931.8 hPa - - - -

* Rain since midnight (hover to see other rain measurements)
** Current wind speed in m/s (hover to see current wind gust speed)